Fort Drum, NY

6:14 PM EDT on March 24, 2017 (GMT -0400)
Wheeler-Sack Army Air Field

Weather History for KGTB - September, 2012

Change the Weather History Date:

Sunday, September 30, 2012

  Actual Average Record
Temperature  
Mean Temperature 51 °F -  
Max Temperature 53 °F 60 °F 75 °F (2013)
Min Temperature 49 °F 41 °F 33 °F (2005)
Degree Days  
Heating Degree Days 14    
Growing Degree Days 1 (Base 50)    
Moisture  
Dew Point 51 °F    
Average Humidity 98    
Maximum Humidity 100    
Minimum Humidity 92    
Precipitation  
Precipitation 0.16 in - - ()
Sea Level Pressure  
Sea Level Pressure 29.83 in    
Wind  
Wind Speed 6 mph (North)    
Max Wind Speed 10 mph    
Max Gust Speed -    
Visibility 10 miles    
Events Rain    
Averages and records for this station are not official NWS values.
T = Trace of Precipitation, MM = Missing Value Source: NWS Daily Summary

Daily Weather History Graph

Daily Weather History Graph

Search for Another Location

Airport or City:

Trip Planner

Search our weather history database for the weather conditions in past years. The results will help you decide how hot, cold, wet, or windy it might be!

Date:

Astronomy

Sep. 30, 2012 Rise Set
Actual Time 6:59 AM EDT 6:44 PM EDT
Civil Twilight 6:31 AM EDT 7:13 PM EDT
Nautical Twilight 5:57 AM EDT 7:46 PM EDT
Astronomical Twilight 5:23 AM EDT 8:20 PM EDT
Moon 6:43 PM EDT (9/30) 7:31 AM EDT (9/30)
Length of Visible Light 12h 42m
Length of Day
11h 44m
Full, 100% of the Moon is Illuminated
Sep 30
Full
Oct 8
Last Quarter
Oct 15
New
Oct 21
First Quarter
Oct 29
Full

Hourly Weather History & Observations

Time (EDT) Temp. Dew Point Humidity Pressure Visibility Wind Dir Wind Speed Gust Speed Precip Events Conditions
7:45 AM 50.0 °F 50.0 °F 100% 29.91 in 10.0 mi NNE 6.9 mph - N/A   Overcast
7:55 AM 49.5 °F 49.5 °F 100% 29.90 in 10.0 mi NE 8.1 mph - N/A   Overcast
8:03 AM 50.0 °F 50.0 °F 100% 29.90 in 10.0 mi NE 5.8 mph - N/A   Overcast
8:42 AM 50.0 °F 50.0 °F 100% 29.90 in 10.0 mi NE 6.9 mph - N/A   Overcast
8:55 AM 49.8 °F 49.8 °F 100% 29.90 in 10.0 mi NE 6.9 mph - N/A   Overcast
8:59 AM 50.0 °F 50.0 °F 100% 29.90 in 10.0 mi NE 8.1 mph - N/A   Overcast
9:00 AM 50.0 °F 50.0 °F 100% 29.90 in 10.0 mi NE 6.9 mph - N/A   Overcast
9:18 AM 50.0 °F 50.0 °F 100% 29.91 in 10.0 mi NNE 5.8 mph - N/A   Overcast
9:49 AM 50.0 °F 50.0 °F 100% 29.90 in 10.0 mi NE 6.9 mph - N/A   Overcast
10:04 AM 51.8 °F 50.0 °F 94% 29.90 in 10.0 mi NE 3.5 mph - N/A   Overcast
10:31 AM 51.8 °F 50.0 °F 94% 29.90 in 10.0 mi NNE 9.2 mph - N/A   Overcast
10:55 AM 51.4 °F 50.5 °F 97% 29.89 in 10.0 mi NNE 5.8 mph - N/A   Overcast
10:58 AM 51.8 °F 50.0 °F 94% 29.89 in 10.0 mi NNE 3.5 mph - N/A   Overcast
11:34 AM 51.8 °F 50.0 °F 94% 29.88 in 10.0 mi NE 6.9 mph - N/A   Overcast
11:41 AM 51.8 °F 50.0 °F 94% 29.88 in 10.0 mi NNE 4.6 mph - N/A   Overcast
11:51 AM 51.8 °F 50.0 °F 94% 29.88 in 10.0 mi Variable 4.6 mph - N/A   Overcast
11:52 AM 51.8 °F 50.0 °F 94% 29.88 in 10.0 mi NE 4.6 mph - N/A   Overcast
11:53 AM 51.8 °F 50.0 °F 94% 29.88 in 10.0 mi NNE 4.6 mph - N/A   Overcast
11:54 AM 51.8 °F 50.0 °F 94% 29.87 in 10.0 mi Variable 4.6 mph - N/A   Overcast
11:55 AM 52.5 °F 50.4 °F 92% 29.88 in 10.0 mi North 4.6 mph - N/A   Overcast
12:00 PM 51.8 °F 50.0 °F 94% 29.87 in 10.0 mi NNE 5.8 mph - N/A   Overcast
12:01 PM 51.8 °F 50.0 °F 94% 29.87 in 10.0 mi NNE 5.8 mph - N/A   Overcast
12:26 PM 51.8 °F 50.0 °F 94% 29.86 in 10.0 mi NNE 6.9 mph - N/A   Overcast
12:50 PM 51.8 °F 50.0 °F 94% 29.86 in 10.0 mi North 5.8 mph - N/A   Overcast
12:54 PM 51.8 °F 51.8 °F 100% 29.86 in 10.0 mi North 5.8 mph - N/A   Overcast
12:55 PM 52.3 °F 50.9 °F 95% 29.86 in 10.0 mi NNE 6.9 mph - N/A   Overcast
1:03 PM 51.8 °F 51.8 °F 100% 29.86 in 10.0 mi North 8.1 mph - N/A   Overcast
1:11 PM 51.8 °F 51.8 °F 100% 29.85 in 10.0 mi North 6.9 mph - N/A   Overcast
1:12 PM 51.8 °F 51.8 °F 100% 29.85 in 10.0 mi North 6.9 mph - N/A   Overcast
1:13 PM 51.8 °F 51.8 °F 100% 29.85 in 10.0 mi North 6.9 mph - N/A   Overcast
1:17 PM 51.8 °F 51.8 °F 100% 29.85 in 10.0 mi NNE 6.9 mph - N/A   Overcast
1:24 PM 51.8 °F 51.8 °F 100% 29.85 in 10.0 mi North 5.8 mph - N/A   Overcast
1:30 PM 51.8 °F 51.8 °F 100% 29.84 in 10.0 mi North 6.9 mph - N/A   Overcast
1:50 PM 51.8 °F 51.8 °F 100% 29.83 in 10.0 mi Variable 4.6 mph - N/A   Overcast
1:53 PM 51.8 °F 51.8 °F 100% 29.83 in 10.0 mi NNE 3.5 mph - N/A   Overcast
1:55 PM 52.2 °F 51.6 °F 98% 29.83 in 10.0 mi NNE 4.6 mph - N/A   Overcast
1:57 PM 51.8 °F 51.8 °F 100% 29.83 in 10.0 mi NNE 4.6 mph - N/A   Light Drizzle
2:04 PM 53.6 °F 51.8 °F 94% 29.83 in 10.0 mi NNE 4.6 mph - N/A   Light Drizzle
2:11 PM 53.6 °F 51.8 °F 94% 29.83 in 10.0 mi NNE 6.9 mph - N/A Rain Light Rain
2:12 PM 53.6 °F 51.8 °F 94% 29.83 in 10.0 mi NNE 8.1 mph - N/A Rain Light Rain
2:20 PM 53.6 °F 51.8 °F 94% 29.82 in 10.0 mi Variable 3.5 mph - N/A   Overcast
2:34 PM 53.6 °F 51.8 °F 94% 29.82 in 10.0 mi NNW 4.6 mph - N/A   Overcast
2:36 PM 53.6 °F 51.8 °F 94% 29.83 in 10.0 mi NNW 6.9 mph - N/A   Overcast
2:38 PM 53.6 °F 51.8 °F 94% 29.83 in 10.0 mi NNW 5.8 mph - N/A   Overcast
2:55 PM 52.9 °F 51.1 °F 94% 29.82 in 10.0 mi NNW 4.6 mph - 0.00 in   Overcast
2:59 PM 53.6 °F 51.8 °F 94% 29.82 in 10.0 mi North 5.8 mph - N/A   Overcast
3:01 PM 53.6 °F 51.8 °F 94% 29.82 in 10.0 mi North 5.8 mph - N/A   Overcast
3:02 PM 53.6 °F 51.8 °F 94% 29.82 in 10.0 mi Variable 4.6 mph - N/A   Overcast
3:10 PM 51.8 °F 51.8 °F 100% 29.82 in 10.0 mi North 5.8 mph - N/A   Overcast
3:20 PM 51.8 °F 51.8 °F 100% 29.82 in 10.0 mi North 5.8 mph - N/A   Overcast
3:55 PM 52.0 °F 51.6 °F 99% 29.81 in 10.0 mi North 5.8 mph - N/A   Overcast
3:57 PM 51.8 °F 51.8 °F 100% 29.81 in 10.0 mi North 8.1 mph - N/A   Overcast
4:05 PM 51.8 °F 51.8 °F 100% 29.81 in 10.0 mi North 4.6 mph - N/A   Overcast
4:08 PM 51.8 °F 51.8 °F 100% 29.81 in 10.0 mi North 3.5 mph - N/A   Overcast
4:24 PM 51.8 °F 51.8 °F 100% 29.81 in 10.0 mi Variable 3.5 mph - N/A   Overcast
4:25 PM 51.8 °F 51.8 °F 100% 29.81 in 10.0 mi North 4.6 mph - N/A   Overcast
4:27 PM 51.8 °F 51.8 °F 100% 29.81 in 10.0 mi North 5.8 mph - N/A   Overcast
4:35 PM 51.8 °F 51.8 °F 100% 29.81 in 10.0 mi North 4.6 mph - N/A   Overcast
4:38 PM 51.8 °F 51.8 °F 100% 29.81 in 10.0 mi North 4.6 mph - N/A   Overcast
4:40 PM 51.8 °F 51.8 °F 100% 29.81 in 10.0 mi North 3.5 mph - N/A   Overcast
4:41 PM 51.8 °F 51.8 °F 100% 29.81 in 10.0 mi North 3.5 mph - N/A   Overcast
4:42 PM 51.8 °F 51.8 °F 100% 29.81 in 9.0 mi Variable 3.5 mph - N/A   Light Drizzle
4:44 PM 51.8 °F 51.8 °F 100% 29.81 in 8.0 mi NNW 4.6 mph - N/A   Light Drizzle
4:51 PM 51.8 °F 51.8 °F 100% 29.80 in 8.0 mi NNW 4.6 mph - N/A   Light Drizzle
4:55 PM 51.1 °F 51.1 °F 100% 29.80 in 9.0 mi North 5.8 mph - 0.00 in   Light Drizzle
5:06 PM 50.0 °F 50.0 °F 100% 29.81 in 10.0 mi North 3.5 mph - N/A   Overcast
5:09 PM 50.0 °F 50.0 °F 100% 29.81 in 10.0 mi Calm Calm - N/A   Overcast
5:15 PM 50.0 °F 50.0 °F 100% 29.81 in 10.0 mi Calm Calm - N/A   Overcast
5:27 PM 50.0 °F 50.0 °F 100% 29.80 in 10.0 mi Calm Calm - N/A   Overcast
5:33 PM 51.8 °F 51.8 °F 100% 29.80 in 10.0 mi Calm Calm - N/A   Overcast
5:38 PM 51.8 °F 51.8 °F 100% 29.80 in 10.0 mi WNW 3.5 mph - N/A   Overcast
5:39 PM 51.8 °F 51.8 °F 100% 29.79 in 10.0 mi Calm Calm - N/A   Light Drizzle
5:55 PM 50.9 °F 50.9 °F 100% 29.79 in 6.0 mi West 4.6 mph - 0.00 in   Light Drizzle
6:53 PM 50.0 °F 50.0 °F 100% 29.79 in 10.0 mi WNW 5.8 mph - N/A   Heavy Drizzle
6:55 PM 50.7 °F 50.7 °F 100% 29.79 in 10.0 mi WNW 4.6 mph - 0.01 in   Heavy Drizzle
7:09 PM 50.0 °F 50.0 °F 100% 29.79 in 9.0 mi Variable 4.6 mph - N/A   Drizzle
7:23 PM 50.0 °F 50.0 °F 100% 29.79 in 9.0 mi West 6.9 mph - N/A Rain Light Rain
7:52 PM 50.0 °F 50.0 °F 100% 29.78 in 8.0 mi WNW 5.8 mph - N/A   Drizzle
7:55 PM 50.5 °F 50.5 °F 100% 29.78 in 8.0 mi WNW 4.6 mph - 0.02 in   Light Drizzle
8:06 PM 50.0 °F 50.0 °F 100% 29.78 in 8.0 mi Variable 4.6 mph - N/A   Drizzle
8:29 PM 50.0 °F 50.0 °F 100% 29.78 in 6.0 mi WNW 4.6 mph - N/A Rain Light Rain
8:55 PM 50.7 °F 50.7 °F 100% 29.78 in 5.0 mi WNW 5.8 mph - 0.05 in Rain Light Rain
9:04 PM 50.0 °F 50.0 °F 100% 29.77 in 7.0 mi WNW 5.8 mph - N/A Rain Light Rain
9:55 PM 50.7 °F 50.7 °F 100% 29.76 in 10.0 mi WNW 5.8 mph - 0.02 in Rain Light Rain
10:55 PM 50.5 °F 50.5 °F 100% 29.75 in 10.0 mi West 10.4 mph - 0.02 in Rain Light Rain
11:08 PM 50.0 °F 50.0 °F 100% 29.74 in 10.0 mi West 6.9 mph - N/A Rain Light Rain
11:55 PM 50.4 °F 50.4 °F 100% 29.73 in 10.0 mi West 9.2 mph - 0.04 in Rain Light Rain